Location: Unspecified
(0.0000°N, 0.0000°E)
Time: 22:50:13
(UTC+00:00)

ISS - Pass Details

Date: 17 April 2018
Orbit: 403 x 406 km, 51.6° (Epoch: 25 April)

Event Time Altitude Azimuth Distance (km) Brightness Sun altitude
Rises 18:49:05 0° 348° (NNW) 2,309 0.3 -12.2°
Reaches altitude 10° 18:51:33 10° 6° (N) 1,453 -1.0 -12.8°
Maximum altitude 18:53:58 19° 54° (NE) 1,026 -2.2 -13.4°
Enters shadow 18:54:19 19° 63° (ENE) 1,037 -2.2 -13.5°
